Tracking 17630 objects as of 25-May-2016
HD Live streaming from Space Station
objects crossing your sky now

SL-8 R/B

Track SL-8 R/B now!
10-day predictions


NORAD ID: 6271
Int'l Code: 1972-087J
Perigee: 1,474.2 km
Apogee: 1,599.7 km
Inclination: 74.0 °
Period: 116.6 minutes
Semi major axis: 7907 km
RCS: 6.2723 m2 (large)
Launch date: November 1, 1972
Source: Commonwealth of Independent States (former USSR) (CIS)
Launch site: PLESETSK MISSILE AND SPACE COMPLEX (PKMTR)

Note: This is a ROCKET BODY
Your satellite tracking list
Your tracking list is empty





NASA's NSSDC Master Catalog

Two Line Element Set (TLE):
1 06271U 72087J   16145.40410601  .00000016  00000-0  24815-3 0  9993
2 06271  74.0420  76.4420 0079334  65.0551  72.2333 12.34553746963374
Source of the keplerian elements: AFSPC

N2YO: 515